FLOCK 2B-4

Last updated on Oct. 17, 2016, 9:19 a.m. UTC

1 40953U 98067HE  16291.21312115  .11586964  12535-4  37363-3 0  9991
2 40953  51.6378 115.4233 0014651 279.7922  82.3163 16.43384270 59349

Satellite is not in orbit.